TimeCDT,TemperatureF,Dew PointF,Humidity,Sea Level PressureIn,VisibilityMPH,Wind Direction,Wind SpeedMPH,Gust SpeedMPH,PrecipitationIn,Events,Conditions,WindDirDegrees,DateUTC
12:15 AM,35.6,30.2,81,30.07,10.0,South,4.6,-,N/A,,Clear,170,2012-10-08 05:15:00
12:35 AM,35.6,30.2,81,30.07,10.0,South,4.6,-,N/A,,Clear,170,2012-10-08 05:35:00
12:55 AM,35.6,30.2,81,30.07,10.0,South,4.6,-,N/A,,Clear,180,2012-10-08 05:55:00
1:15 AM,35.6,30.2,81,30.06,10.0,South,4.6,-,N/A,,Clear,170,2012-10-08 06:15:00
1:35 AM,35.6,30.2,81,30.07,10.0,South,3.5,-,N/A,,Clear,170,2012-10-08 06:35:00
1:55 AM,35.6,30.2,81,30.07,10.0,Calm,Calm,-,N/A,,Clear,0,2012-10-08 06:55:00
2:15 AM,35.6,30.2,81,30.07,10.0,South,4.6,-,N/A,,Clear,170,2012-10-08 07:15:00
2:35 AM,35.6,30.2,81,30.06,10.0,Calm,Calm,-,N/A,,Clear,0,2012-10-08 07:35:00
2:55 AM,33.8,30.2,87,30.06,10.0,South,3.5,-,N/A,,Clear,170,2012-10-08 07:55:00
3:15 AM,35.6,30.2,81,30.05,10.0,South,3.5,-,N/A,,Clear,180,2012-10-08 08:15:00
3:35 AM,37.4,32.0,81,30.04,10.0,South,4.6,-,N/A,,Clear,180,2012-10-08 08:35:00
3:55 AM,37.4,33.8,87,30.03,10.0,South,3.5,-,N/A,,Clear,170,2012-10-08 08:55:00
4:15 AM,37.4,32.0,81,30.03,10.0,South,5.8,-,N/A,,Clear,170,2012-10-08 09:15:00
4:35 AM,37.4,33.8,87,30.03,10.0,South,5.8,-,N/A,,Clear,180,2012-10-08 09:35:00
4:55 AM,37.4,33.8,87,30.03,10.0,South,4.6,-,N/A,,Clear,180,2012-10-08 09:55:00
5:15 AM,37.4,33.8,87,30.02,10.0,South,4.6,-,N/A,,Clear,180,2012-10-08 10:15:00
5:35 AM,37.4,33.8,87,30.03,10.0,South,5.8,-,N/A,,Clear,190,2012-10-08 10:35:00
5:55 AM,37.4,33.8,87,30.03,10.0,South,5.8,-,N/A,,Clear,180,2012-10-08 10:55:00
6:15 AM,37.4,33.8,87,30.02,10.0,South,5.8,-,N/A,,Clear,170,2012-10-08 11:15:00
6:35 AM,37.4,33.8,87,30.02,10.0,South,5.8,-,N/A,,Clear,180,2012-10-08 11:35:00
6:55 AM,37.4,33.8,87,30.02,10.0,South,5.8,-,N/A,,Clear,180,2012-10-08 11:55:00
7:15 AM,37.4,33.8,87,30.02,10.0,South,5.8,-,N/A,,Clear,180,2012-10-08 12:15:00
7:35 AM,37.4,33.8,87,30.02,10.0,South,4.6,-,N/A,,Clear,190,2012-10-08 12:35:00
7:55 AM,37.4,33.8,87,30.01,10.0,South,5.8,-,N/A,,Clear,190,2012-10-08 12:55:00
8:15 AM,39.2,35.6,87,30.02,10.0,South,5.8,-,N/A,,Clear,180,2012-10-08 13:15:00
8:35 AM,42.8,35.6,76,30.01,10.0,South,5.8,-,N/A,,Clear,190,2012-10-08 13:35:00
8:55 AM,42.8,35.6,76,30.02,10.0,South,8.1,-,N/A,,Clear,190,2012-10-08 13:55:00
9:15 AM,44.6,35.6,71,30.02,10.0,South,8.1,-,N/A,,Clear,190,2012-10-08 14:15:00
9:35 AM,46.4,35.6,66,30.01,10.0,South,10.4,-,N/A,,Clear,190,2012-10-08 14:35:00
9:55 AM,48.2,37.4,66,30.01,10.0,South,9.2,-,N/A,,Clear,190,2012-10-08 14:55:00
10:15 AM,51.8,35.6,54,30.01,10.0,South,13.8,17.3,N/A,,Clear,180,2012-10-08 15:15:00
10:35 AM,53.6,37.4,54,30.00,10.0,South,11.5,-,N/A,,Clear,190,2012-10-08 15:35:00
10:55 AM,55.4,35.6,47,29.99,10.0,South,9.2,17.3,N/A,,Clear,190,2012-10-08 15:55:00
11:15 AM,57.2,37.4,48,29.98,10.0,South,12.7,-,N/A,,Clear,190,2012-10-08 16:15:00
11:35 AM,59.0,35.6,42,29.98,10.0,SSW,16.1,23.0,N/A,,Clear,200,2012-10-08 16:35:00
11:55 AM,60.8,35.6,39,29.98,10.0,SSW,17.3,21.9,N/A,,Clear,210,2012-10-08 16:55:00
12:15 PM,62.6,35.6,37,29.97,10.0,SSW,15.0,20.7,N/A,,Clear,200,2012-10-08 17:15:00
12:35 PM,64.4,35.6,34,29.96,10.0,SSW,17.3,24.2,N/A,,Clear,210,2012-10-08 17:35:00
12:55 PM,64.4,33.8,32,29.95,10.0,SSW,13.8,26.5,N/A,,Clear,200,2012-10-08 17:55:00
1:15 PM,64.4,33.8,32,29.94,10.0,SSW,17.3,26.5,N/A,,Clear,200,2012-10-08 18:15:00
1:35 PM,66.2,33.8,30,29.92,10.0,SW,16.1,25.3,N/A,,Clear,220,2012-10-08 18:35:00
1:55 PM,68.0,33.8,28,29.91,10.0,SSW,18.4,24.2,N/A,,Clear,210,2012-10-08 18:55:00
2:15 PM,68.0,33.8,28,29.90,10.0,South,19.6,25.3,N/A,,Clear,190,2012-10-08 19:15:00
2:35 PM,69.8,32.0,25,29.89,10.0,SSW,18.4,25.3,N/A,,Clear,200,2012-10-08 19:35:00
2:55 PM,69.8,32.0,25,29.88,10.0,SSW,19.6,24.2,N/A,,Clear,210,2012-10-08 19:55:00
3:15 PM,69.8,32.0,25,29.87,10.0,SSW,19.6,25.3,N/A,,Clear,200,2012-10-08 20:15:00
3:35 PM,69.8,30.2,23,29.86,10.0,SSW,16.1,24.2,N/A,,Clear,210,2012-10-08 20:35:00
3:55 PM,71.6,30.2,22,29.86,10.0,SSW,16.1,25.3,N/A,,Clear,200,2012-10-08 20:55:00
4:15 PM,71.6,28.4,20,29.85,10.0,SW,17.3,23.0,N/A,,Clear,230,2012-10-08 21:15:00
4:35 PM,71.6,28.4,20,29.84,10.0,SW,16.1,21.9,N/A,,Clear,220,2012-10-08 21:35:00
4:55 PM,71.6,28.4,20,29.84,10.0,SSW,15.0,20.7,N/A,,Clear,200,2012-10-08 21:55:00
5:15 PM,69.8,28.4,21,29.84,10.0,SSW,16.1,-,N/A,,Clear,210,2012-10-08 22:15:00
5:35 PM,69.8,28.4,21,29.84,10.0,SSW,13.8,19.6,N/A,,Clear,200,2012-10-08 22:35:00
5:55 PM,69.8,28.4,21,29.84,10.0,SSW,16.1,21.9,N/A,,Clear,210,2012-10-08 22:55:00
6:15 PM,68.0,30.2,24,29.84,10.0,South,9.2,-,N/A,,Clear,190,2012-10-08 23:15:00
6:35 PM,66.2,30.2,26,29.85,10.0,SSW,8.1,-,N/A,,Clear,200,2012-10-08 23:35:00
6:55 PM,64.4,32.0,30,29.85,10.0,South,8.1,-,N/A,,Clear,190,2012-10-08 23:55:00
7:35 PM,60.8,35.6,39,29.86,10.0,South,9.2,-,N/A,,Clear,180,2012-10-09 00:35:00
7:55 PM,60.8,35.6,39,29.85,10.0,South,9.2,-,N/A,,Clear,180,2012-10-09 00:55:00
8:15 PM,57.2,35.6,44,29.86,10.0,South,8.1,-,N/A,,Clear,170,2012-10-09 01:15:00
8:35 PM,57.2,35.6,44,29.86,10.0,South,8.1,-,N/A,,Clear,180,2012-10-09 01:35:00
8:55 PM,57.2,35.6,44,29.86,10.0,South,10.4,-,N/A,,Clear,180,2012-10-09 01:55:00
9:15 PM,57.2,35.6,44,29.86,10.0,South,11.5,17.3,N/A,,Clear,180,2012-10-09 02:15:00
9:35 PM,57.2,35.6,44,29.86,10.0,South,11.5,-,N/A,,Clear,180,2012-10-09 02:35:00
9:55 PM,57.2,35.6,44,29.86,10.0,South,10.4,-,N/A,,Clear,180,2012-10-09 02:55:00
10:15 PM,55.4,35.6,47,29.86,10.0,South,10.4,-,N/A,,Clear,180,2012-10-09 03:15:00
10:55 PM,55.4,35.6,47,29.86,10.0,South,9.2,-,N/A,,Clear,180,2012-10-09 03:55:00
11:15 PM,55.4,37.4,51,29.86,10.0,South,9.2,-,N/A,,Clear,180,2012-10-09 04:15:00
11:35 PM,53.6,37.4,54,29.86,10.0,South,6.9,-,N/A,,Clear,180,2012-10-09 04:35:00
11:55 PM,53.6,37.4,54,29.86,10.0,South,6.9,-,N/A,,Clear,180,2012-10-09 04:55:00